When you browse on this site, cookies collect data to enhance your experience and personalize the content and advertising you see.
Visit our Privacy Policy to learn more. By continuing to use the site, you agree to this use of cookies and data.
  • In Hungary
  • List of Countries
  • For 7 days
  • Water Temperature
  • Weather Map
  • News
  • Weather Widgets
  • user-avatar
    Login

    Hourly Weather Banka

    Today, 19 February, Wednesday

    Time Temperature Precipitation Wind Pressure Humidity
    00:00 +18°C° 0 mm 1 mps 754 mmHg 46%
    01:00 +18°C° 0 mm 1 mps 754 mmHg 47%
    02:00 +16°C° 0 mm 0 mps 754 mmHg 48%
    03:00 +15°C° 0 mm 0 mps 753 mmHg 49%
    04:00 +15°C° 0 mm 0 mps 753 mmHg 50%
    05:00 +16°C° 0 mm 1 mps 753 mmHg 51%
    06:00 +15°C° 0 mm 1 mps 753 mmHg 55%
    07:00 +17°C° 0 mm 0 mps 754 mmHg 49%
    08:00 +19°C° 0 mm 0 mps 755 mmHg 43%
    09:00 +21°C° 0 mm 0 mps 755 mmHg 37%
    10:00 +23°C° 0 mm 0 mps 755 mmHg 31%
    11:00 +27°C° 0 mm 1 mps 755 mmHg 25%
    12:00 +29°C° 0 mm 1 mps 755 mmHg 19%
    13:00 +30°C° 0 mm 2 mps 754 mmHg 18%
    14:00 +30°C° 0 mm 2 mps 753 mmHg 16%
    15:00 +31°C° 0 mm 2 mps 752 mmHg 14%
    16:00 +29°C° 0 mm 2 mps 752 mmHg 17%
    17:00 +28°C° 0 mm 3 mps 751 mmHg 20%
    18:00 +26°C° 0 mm 3 mps 751 mmHg 23%
    19:00 +24°C° 0 mm 2 mps 752 mmHg 25%
    20:00 +23°C° 0 mm 2 mps 752 mmHg 28%
    21:00 +21°C° 0 mm 1 mps 753 mmHg 30%
    22:00 +21°C° 0 mm 1 mps 753 mmHg 31%
    23:00 +21°C° 0 mm 1 mps 753 mmHg 32%

    Tomorrow, 20 February, Thursday

    Time Temperature Precipitation Wind Pressure Humidity
    00:00 +18°C° 0 mm 0 mps 753 mmHg 32%
    01:00 +18°C° 0 mm 0 mps 753 mmHg 33%
    02:00 +18°C° 0 mm 0 mps 753 mmHg 33%
    03:00 +17°C° 0 mm 0 mps 752 mmHg 34%
    04:00 +17°C° 0 mm 0 mps 752 mmHg 34%
    05:00 +17°C° 0 mm 0 mps 753 mmHg 35%
    06:00 +17°C° 0 mm 0 mps 753 mmHg 35%
    07:00 +18°C° 0 mm 0 mps 753 mmHg 33%
    08:00 +22°C° 0 mm 1 mps 754 mmHg 31%
    09:00 +24°C° 0 mm 1 mps 755 mmHg 29%
    10:00 +25°C° 0 mm 1 mps 755 mmHg 27%
    11:00 +27°C° 0 mm 1 mps 755 mmHg 24%
    12:00 +29°C° 0 mm 1 mps 754 mmHg 21%
    13:00 +30°C° 0 mm 1 mps 754 mmHg 20%
    14:00 +31°C° 0 mm 1 mps 753 mmHg 18%
    15:00 +31°C° 0 mm 1 mps 752 mmHg 17%
    16:00 +30°C° 0 mm 1 mps 752 mmHg 19%
    17:00 +28°C° 0 mm 2 mps 752 mmHg 22%
    18:00 +27°C° 0 mm 2 mps 752 mmHg 24%
    19:00 +25°C° 0 mm 2 mps 752 mmHg 26%
    20:00 +24°C° 0 mm 1 mps 753 mmHg 27%
    21:00 +23°C° 0 mm 1 mps 754 mmHg 28%
    22:00 +22°C° 0 mm 1 mps 753 mmHg 30%
    23:00 +21°C° 0 mm 1 mps 753 mmHg 32%

    Day after tomorrow, 21 February, Friday

    Time Temperature Precipitation Wind Pressure Humidity
    00:00 +21°C° 0 mm 1 mps 753 mmHg 33%
    01:00 +20°C° 0 mm 1 mps 753 mmHg 34%
    02:00 +20°C° 0 mm 1 mps 753 mmHg 34%
    03:00 +20°C° 0 mm 1 mps 753 mmHg 34%
    04:00 +20°C° 0 mm 1 mps 753 mmHg 35%
    05:00 +19°C° 0 mm 1 mps 753 mmHg 35%
    06:00 +19°C° 0 mm 1 mps 753 mmHg 36%
    07:00 +20°C° 0 mm 2 mps 754 mmHg 34%
    08:00 +23°C° 0 mm 2 mps 755 mmHg 31%
    09:00 +25°C° 0 mm 2 mps 756 mmHg 29%
    10:00 +27°C° 0 mm 2 mps 756 mmHg 27%
    11:00 +30°C° 0 mm 3 mps 756 mmHg 26%
    12:00 +33°C° 0 mm 3 mps 756 mmHg 24%
    19:00 +28°C° 0 mm 3 mps 754 mmHg 28%
    20:00 +27°C° 0 mm 3 mps 754 mmHg 30%
    21:00 +25°C° 0 mm 2 mps 755 mmHg 32%
    22:00 +25°C° 0 mm 2 mps 755 mmHg 32%
    23:00 +24°C° 0 mm 2 mps 755 mmHg 32%

    22 February, Saturday

    Time Temperature Precipitation Wind Pressure Humidity
    00:00 +24°C° 0 mm 1 mps 755 mmHg 33%
    01:00 +23°C° 0 mm 1 mps 755 mmHg 33%
    02:00 +23°C° 0 mm 1 mps 755 mmHg 33%
    03:00 +20°C° 0 mm 0 mps 755 mmHg 34%
    04:00 +20°C° 0 mm 0 mps 755 mmHg 33%
    05:00 +22°C° 0 mm 1 mps 755 mmHg 33%
    06:00 +22°C° 0 mm 1 mps 755 mmHg 33%
    07:00 +23°C° 0 mm 1 mps 756 mmHg 32%
    08:00 +25°C° 0 mm 1 mps 756 mmHg 31%
    09:00 +26°C° 0 mm 1 mps 757 mmHg 31%
    10:00 +25°C° 0.1 mm 2 mps 757 mmHg 36%
    11:00 +25°C° 0.1 mm 3 mps 757 mmHg 40%
    12:00 +25°C° 0.1 mm 4 mps 756 mmHg 45%
    13:00 +27°C° 0 mm 3 mps 756 mmHg 41%
    14:00 +29°C° 0 mm 3 mps 755 mmHg 36%
    15:00 +30°C° 0 mm 3 mps 754 mmHg 32%
    16:00 +29°C° 0 mm 2 mps 754 mmHg 34%
    17:00 +28°C° 0 mm 1 mps 754 mmHg 37%
    18:00 +27°C° 0 mm 1 mps 753 mmHg 39%
    19:00 +27°C° 0 mm 1 mps 754 mmHg 40%
    20:00 +26°C° 0 mm 1 mps 754 mmHg 41%
    21:00 +25°C° 0 mm 1 mps 755 mmHg 42%
    22:00 +25°C° 0 mm 1 mps 755 mmHg 43%
    23:00 +25°C° 0 mm 1 mps 755 mmHg 44%

    23 February, Sunday

    Time Temperature Precipitation Wind Pressure Humidity
    00:00 +24°C° 0 mm 1 mps 755 mmHg 45%
    01:00 +24°C° 0 mm 1 mps 754 mmHg 44%
    02:00 +25°C° 0 mm 2 mps 754 mmHg 44%
    03:00 +25°C° 0 mm 2 mps 754 mmHg 43%
    04:00 +24°C° 0 mm 1 mps 754 mmHg 45%
    05:00 +24°C° 0 mm 1 mps 754 mmHg 46%
    06:00 +23°C° 0 mm 1 mps 754 mmHg 47%
    07:00 +24°C° 0.1 mm 2 mps 754 mmHg 45%
    08:00 +25°C° 0.1 mm 2 mps 755 mmHg 43%
    09:00 +26°C° 0.1 mm 2 mps 756 mmHg 41%
    10:00 +28°C° 0.1 mm 2 mps 755 mmHg 38%
    11:00 +29°C° 0.1 mm 2 mps 755 mmHg 35%
    12:00 +31°C° 0.1 mm 2 mps 755 mmHg 31%
    13:00 +32°C° 0 mm 2 mps 754 mmHg 29%
    14:00 +34°C° 0 mm 2 mps 753 mmHg 26%
    15:00 +35°C° 0 mm 3 mps 752 mmHg 24%
    16:00 +34°C° 0 mm 2 mps 752 mmHg 26%
    17:00 +32°C° 0 mm 2 mps 752 mmHg 28%
    18:00 +30°C° 0 mm 1 mps 752 mmHg 30%
    19:00 +29°C° 0 mm 1 mps 752 mmHg 33%
    20:00 +28°C° 0 mm 2 mps 752 mmHg 35%
    21:00 +26°C° 0 mm 2 mps 753 mmHg 38%
    22:00 +26°C° 0 mm 1 mps 753 mmHg 40%
    23:00 +25°C° 0 mm 1 mps 753 mmHg 41%

    24 February, Monday

    Time Temperature Precipitation Wind Pressure Humidity
    00:00 +22°C° 0 mm 0 mps 753 mmHg 43%
    01:00 +24°C° 0.1 mm 1 mps 752 mmHg 45%
    02:00 +24°C° 0.1 mm 1 mps 752 mmHg 47%
    03:00 +24°C° 0.1 mm 1 mps 752 mmHg 49%
    04:00 +23°C° 0 mm 1 mps 752 mmHg 51%
    05:00 +23°C° 0 mm 1 mps 752 mmHg 53%
    06:00 +23°C° 0 mm 1 mps 751 mmHg 55%
    07:00 +24°C° 0.1 mm 1 mps 752 mmHg 52%
    08:00 +25°C° 0.1 mm 1 mps 753 mmHg 50%
    09:00 +26°C° 0.1 mm 1 mps 753 mmHg 47%
    10:00 +28°C° 0 mm 1 mps 753 mmHg 42%
    11:00 +30°C° 0 mm 1 mps 753 mmHg 36%
    12:00 +32°C° 0 mm 1 mps 753 mmHg 31%
    13:00 +34°C° 0 mm 2 mps 752 mmHg 29%
    14:00 +34°C° 0 mm 2 mps 751 mmHg 27%
    15:00 +35°C° 0 mm 2 mps 750 mmHg 25%
    16:00 +34°C° 0 mm 2 mps 750 mmHg 27%
    17:00 +32°C° 0 mm 2 mps 750 mmHg 29%
    18:00 +31°C° 0 mm 2 mps 750 mmHg 30%
    19:00 +29°C° 0 mm 2 mps 750 mmHg 36%
    20:00 +27°C° 0 mm 2 mps 750 mmHg 41%
    21:00 +26°C° 0 mm 2 mps 751 mmHg 47%
    22:00 +26°C° 0 mm 2 mps 751 mmHg 47%
    23:00 +25°C° 0 mm 2 mps 751 mmHg 48%
    Show more